View from above orbital plane
|
View from above satellite
|
Ground track
|
The orbit data is extracted from the following two-line orbital elements,
1 33495U 09002D 21023.58506602 .00000011 00000-0 10236-4 0 9993
2 33495 98.3516 237.4971 0008148 172.4235 187.7096 14.72201351644082
Epoch (UTC): | 23 January 2021 14:02:29 |
Eccentricity: | 0.0008148 |
inclination: | 98.3516° |
perigee height: | 648 km |
apogee height: | 660 km |
right ascension of ascending node: | 237.4971° |
argument of perigee: | 172.4235° |
revolutions per day: | 14.72201351 |
mean anomaly at epoch: | 187.7096° |
orbit number at epoch: | 64408 |
The dashed part of the orbit path shows where the satellite is in the earth's shadow,
|
|